Tillbaka till svenska Fidonet
English   Information   Debug  
FILM   0/18
FNEWS_PUBLISH   4851
FN_SYSOP   42078
FN_SYSOP_OLD1   71952
FTP_FIDO   0/2
FTSC_PUBLIC   0/13916
FUNNY   0/4886
GENEALOGY.EUR   0/71
GET_INFO   105
GOLDED   0/408
HAM   0/16597
HOLYSMOKE   0/6791
HOT_SITES   0/1
HTMLEDIT   0/71
HUB203   466
HUB_100   264
HUB_400   39
HUMOR   0/29
IC   160/2851
INTERNET   0/424
INTERUSER   0/3
IP_CONNECT   719
JAMNNTPD   0/233
JAMTLAND   0/47
KATTY_KORNER   0/41
LAN   0/16
LINUX-USER   0/19
LINUXHELP   0/1155
LINUX   0/22279
LINUX_BBS   0/957
mail   18.68
mail_fore_ok   249
MENSA   0/341
MODERATOR   0/102
MONTE   0/992
MOSCOW_OKLAHOMA   0/1245
MUFFIN   0/783
MUSIC   0/321
N203_STAT   938
N203_SYSCHAT   313
NET203   321
NET204   69
NET_DEV   0/10
NORD.ADMIN   0/101
NORD.CHAT   0/2572
NORD.FIDONET   189
NORD.HARDWARE   0/28
NORD.KULTUR   0/114
NORD.PROG   0/32
NORD.SOFTWARE   0/88
NORD.TEKNIK   0/58
NORD   0/453
OCCULT_CHAT   0/93
OS2BBS   0/787
OS2DOSBBS   0/580
OS2HW   0/42
OS2INET   0/37
OS2LAN   0/134
OS2PROG   0/36
OS2REXX   0/113
OS2USER-L   207
OS2   0/4823
OSDEBATE   9209/18996
PASCAL   0/490
PERL   0/457
PHP   0/45
POINTS   0/405
POLITICS   0/29554
POL_INC   12913/14731
PSION   103
R20_ADMIN   1133
R20_AMATORRADIO   0/2
R20_BEST_OF_FIDONET   16
R20_CHAT   0/896
R20_DEPP   0/3
R20_DEV   400
R20_ECHO2   1764
R20_ECHOPRES   0/35
R20_ESTAT   0/719
R20_FIDONETPROG...
...RAM.MYPOINT
  0/2
R20_FIDONETPROGRAM   0/22
R20_FIDONET   0/248
R20_FILEFIND   0/24
R20_FILEFOUND   0/22
R20_HIFI   0/3
R20_INFO2   3656
R20_INTERNET   0/12940
R20_INTRESSE   0/60
R20_INTR_KOM   0/99
R20_KANDIDAT.CHAT   42
R20_KANDIDAT   28
R20_KOM_DEV   112
R20_KONTROLL   0/13360
R20_KORSET   0/18
R20_LOKALTRAFIK   0/24
R20_MODERATOR   0/1852
R20_NC   76
R20_NET200   245
R20_NETWORK.OTH...
...ERNETS
  0/13
R20_OPERATIVSYS...
...TEM.LINUX
  0/44
R20_PROGRAMVAROR   0/1
R20_REC2NEC   534
R20_SFOSM   0/341
R20_SF   0/108
R20_SPRAK.ENGLISH   0/1
R20_SQUISH   107
R20_TEST   2
R20_WORST_OF_FIDONET   20
RAR   0/9
RA_MULTI   106
RA_UTIL   0/162
REGCON.EUR   0/2067
REGCON   0/13
SCIENCE   0/1206
SF   0/239
SHAREWARE_SUPPORT   0/5146
SHAREWRE   0/14
SIMPSONS   0/169
STATS_OLD1   0/2539.065
STATS_OLD2   0/2530
STATS_OLD3   0/2395.095
STATS_OLD4   0/1692.25
SURVIVOR   0/495
SYSOPS_CORNER   0/3
SYSOP   0/84
TAGLINES   0/112
TEAMOS2   0/4530
TECH   2611/2617
TEST.444   0/105
TRAPDOOR   0/19
TREK   0/755
TUB   0/290
UFO   0/40
UNIX   0/1316
USA_EURLINK   0/102
USR_MODEMS   0/1
VATICAN   0/2740
VIETNAM_VETS   0/14
VIRUS   0/378
VIRUS_INFO   0/201
VISUAL_BASIC   0/473
WHITEHOUSE   0/5187
WIN2000   0/101
WIN32   0/30
WIN95   0/4291
WIN95_OLD1   0/70272
WINDOWS   1139/1517
WWB_SYSOP   0/419
WWB_TECH   0/810
ZCC-PUBLIC   0/1
ZEC   4

 
4DOS   0/134
ABORTION   0/7
ALASKA_CHAT   0/506
ALLFIX_FILE   0/1313
ALLFIX_FILE_OLD1   0/7997
ALT_DOS   0/152
AMATEUR_RADIO   0/1039
AMIGASALE   0/14
AMIGA   0/331
AMIGA_INT   0/1
AMIGA_PROG   0/20
AMIGA_SYSOP   0/26
ANIME   0/15
ARGUS   0/924
ASCII_ART   0/340
ASIAN_LINK   0/651
ASTRONOMY   0/417
AUDIO   0/92
AUTOMOBILE_RACING   0/105
BABYLON5   0/17862
BAG   135
BATPOWER   0/361
BBBS.ENGLISH   0/382
BBSLAW   0/109
BBS_ADS   0/5290
BBS_INTERNET   0/507
BIBLE   0/3563
BINKD   0/1119
BINKLEY   0/215
BLUEWAVE   0/2173
CABLE_MODEMS   0/25
CBM   0/46
CDRECORD   0/66
CDROM   0/20
CLASSIC_COMPUTER   0/378
COMICS   0/15
CONSPRCY   0/899
COOKING   40774
COOKING_OLD1   15268/24719
COOKING_OLD2   0/40862
COOKING_OLD3   0/37489
COOKING_OLD4   0/35496
COOKING_OLD5   9370
C_ECHO   0/189
C_PLUSPLUS   0/31
DIRTY_DOZEN   0/201
DOORGAMES   0/2235
DOS_INTERNET   0/196
duplikat   6102
ECHOLIST   15242/18295
EC_SUPPORT   0/318
ELECTRONICS   0/359
ELEKTRONIK.GER   1534
ENET.LINGUISTIC   0/13
ENET.POLITICS   0/4
ENET.SOFT   0/11701
ENET.SYSOP   34241
ENET.TALKS   0/32
ENGLISH_TUTOR   0/2000
EVOLUTION   584/1335
FDECHO   0/217
FDN_ANNOUNCE   0/7068
FIDONEWS   24878
FIDONEWS_OLD1   0/49742
FIDONEWS_OLD2   0/35949
FIDONEWS_OLD3   0/30874
FIDONEWS_OLD4   0/37224
FIDO_SYSOP   12919
FIDO_UTIL   0/180
FILEFIND   0/209
FILEGATE   0/212
Möte HAM, 16597 texter
 lista första sista föregående nästa
Text 2404, 815 rader
Skriven 2008-07-25 02:00:22 av Amsat List (1:323/120.0)
Ärende: [keps]  orb08206.amsa
=============================
[keps]  orb08206.amsa

Return-Path: <keps-bounces@AMSAT.Org>
X-Rcpt: craig.healy@chowda.com
X-UIDL: 1216964859.51028

SB KEPS @ AMSAT  $ORB08206.O
Orbital Elements  08206.OSCAR

HR AMSAT ORBITAL ELEMENTS FOR OSCAR SATELLITES
FROM WA5QGD FORT WORTH,TX July 24, 2008
Send Subscribe/unsubscribe to KEPS at 
http://www.amsat.org/mailman/listinfo/keps
BID: ORB08206.O
TO ALL RADIO AMATEURS BT

Satellite: AO-07
Catalog number: 07530
Epoch time:      08205.60553782
Element set:     234
Inclination:      101.4631 deg
RA of node:       235.8812 deg
Eccentricity:    0.0011857
Arg of perigee:   189.7460 deg
Mean anomaly:     170.3386 deg
Mean motion:   12.53573815 rev/day
Decay rate:       -2.7e-07 rev/day^2
Epoch rev:           54154
Checksum:              292

Satellite: AO-10
Catalog number: 14129
Epoch time:      08205.15414315
Element set:    0534
Inclination:      026.0038 deg
RA of node:       204.1976 deg
Eccentricity:    0.5975098
Arg of perigee:   142.4911 deg
Mean anomaly:     280.0106 deg
Mean motion:   02.05869161 rev/day
Decay rate:        5.6e-07 rev/day^2
Epoch rev:           18884
Checksum:              288

Satellite: UO-11
Catalog number: 14781
Epoch time:      08206.58188530
Element set:     727
Inclination:      098.1518 deg
RA of node:       241.1703 deg
Eccentricity:    0.0008574
Arg of perigee:   319.5732 deg
Mean anomaly:     040.4771 deg
Mean motion:   14.79657993 rev/day
Decay rate:       6.96e-06 rev/day^2
Epoch rev:           30938
Checksum:              334

Satellite: RS-15
Catalog number: 23439
Epoch time:      08205.90953277
Element set:    0151
Inclination:      064.8153 deg
RA of node:       075.6674 deg
Eccentricity:    0.0147172
Arg of perigee:   115.7122 deg
Mean anomaly:     245.9077 deg
Mean motion:   11.27552294 rev/day
Decay rate:       -3.9e-07 rev/day^2
Epoch rev:           55910
Checksum:              310

Satellite: FO-29
Catalog number: 24278
Epoch time:      08206.54258989
Element set:     821
Inclination:      098.5853 deg
RA of node:       117.9441 deg
Eccentricity:    0.0351269
Arg of perigee:   118.8172 deg
Mean anomaly:     244.8719 deg
Mean motion:   13.52938406 rev/day
Decay rate:       -5.0e-08 rev/day^2
Epoch rev:           58944
Checksum:              354

Satellite: SO-33
Catalog number: 25509
Epoch time:      08206.79553737
Element set:     248
Inclination:      031.4337 deg
RA of node:       103.6995 deg
Eccentricity:    0.0354743
Arg of perigee:   355.9448 deg
Mean anomaly:     003.8330 deg
Mean motion:   14.28217072 rev/day
Decay rate:        4.2e-07 rev/day^2
Epoch rev:           50899
Checksum:              320

Satellite: AO-40
Catalog number: 26609
Epoch time:      08203.04343986
Element set:      94
Inclination:      007.6232 deg
RA of node:       071.1288 deg
Eccentricity:    0.7921784
Arg of perigee:   103.6197 deg
Mean anomaly:     345.9112 deg
Mean motion:   01.25585283 rev/day
Decay rate:      -2.01e-06 rev/day^2
Epoch rev:            3546
Checksum:              298

Satellite: VO-52
Catalog number: 28650
Epoch time:      08205.60849074
Element set:     987
Inclination:      097.7869 deg
RA of node:       271.2165 deg
Eccentricity:    0.0027647
Arg of perigee:   024.4857 deg
Mean anomaly:     335.7522 deg
Mean motion:   14.81483359 rev/day
Decay rate:       -1.1e-07 rev/day^2
Epoch rev:           17399
Checksum:              347

Satellite: PO-63
Catalog number: 29712
Epoch time:      08206.74180829
Element set:     646
Inclination:      097.8735 deg
RA of node:       264.2209 deg
Eccentricity:    0.0012863
Arg of perigee:   259.6390 deg
Mean anomaly:     100.3385 deg
Mean motion:   14.80219655 rev/day
Decay rate:       4.10e-06 rev/day^2
Epoch rev:            8302
Checksum:              308

/EX
SB KEPS @ AMSAT  $ORB08206.D
Orbital Elements  08206.MICROS

HR AMSAT ORBITAL ELEMENTS FOR THE MICROSATS
FROM WA5QGD FORT WORTH,TX July 24, 2008
Send Subscribe/unsubscribe to KEPS at 
http://www.amsat.org/mailman/listinfo/keps
BID: ORB08206.D
TO ALL RADIO AMATEURS BT

Satellite: AO-16
Catalog number: 20439
Epoch time:      08205.54958809
Element set:    0376
Inclination:      098.2315 deg
RA of node:       183.7565 deg
Eccentricity:    0.0011962
Arg of perigee:   069.6963 deg
Mean anomaly:     290.5507 deg
Mean motion:   14.31798612 rev/day
Decay rate:       -1.4e-07 rev/day^2
Epoch rev:           96612
Checksum:              336

Satellite: LO-19
Catalog number: 20442
Epoch time:      08205.59086980
Element set:    0302
Inclination:      098.2019 deg
RA of node:       192.2220 deg
Eccentricity:    0.0012929
Arg of perigee:   067.5186 deg
Mean anomaly:     292.7356 deg
Mean motion:   14.32036837 rev/day
Decay rate:       -2.6e-07 rev/day^2
Epoch rev:           96628
Checksum:              312

Satellite: AO-27
Catalog number: 22825
Epoch time:      08205.60452323
Element set:      23
Inclination:      098.3862 deg
RA of node:       164.2647 deg
Eccentricity:    0.0008769
Arg of perigee:   147.6245 deg
Mean anomaly:     212.5456 deg
Mean motion:   14.29243241 rev/day
Decay rate:        1.8e-07 rev/day^2
Epoch rev:           77297
Checksum:              307

Satellite: IO-26
Catalog number: 22826
Epoch time:      08206.84215316
Element set:     730
Inclination:      098.3789 deg
RA of node:       166.3485 deg
Eccentricity:    0.0009326
Arg of perigee:   140.8705 deg
Mean anomaly:     219.3160 deg
Mean motion:   14.29492364 rev/day
Decay rate:       -1.9e-07 rev/day^2
Epoch rev:           77324
Checksum:              317

